Sauze dOulx, Italy 16 day weather forecast

Slopes altitude range 1390 m - 2825m

Number of lifts: 72 Pistes: 400km

In some cases the lift and piste totals shown are for the ski domain (e.g. Three Valleys) rather than individual resort (e.g. Courchevel)

Overview

The 16 day weather forecast is fully updated 4 times every day.

    • Wed 26 JUN 2019
    • Wed 26
    • 17C 27C
    • Thu 27 JUN 2019
    • Thu 27
    • 19C 30C
    • Fri 28 JUN 2019
    • Fri 28
    • 18C 28C
    • Sat 29 JUN 2019
    • Sat 29
    • 14C 20C
    • Sun 30 JUN 2019
    • Sun 30
    • 15C 24C
    • Mon 01 JUL 2019
    • Mon 01
    • 17C 26C
    • Tue 02 JUL 2019
    • Tue 02
    • 15C 24C
    • Wed 03 JUL 2019
    • Wed 03
    • 14C 18C
    • Thu 04 JUL 2019
    • Thu 04
    • 13C 20C
    • Fri 05 JUL 2019
    • Fri 05
    • 14C 24C
    • Sat 06 JUL 2019
    • Sat 06
    • 14C 22C
    • Sun 07 JUL 2019
    • Sun 07
    • 11C 15C
    • Mon 08 JUL 2019
    • Mon 08
    • 15C 25C
    • Tue 09 JUL 2019
    • Tue 09
    • 15C 25C
    • Wed 10 JUL 2019
    • Wed 10
    • 15C 25C
    • Thu 11 JUL 2019
    • Thu 11
    • 15C 22C

Date:

Time Type 0°C level Temp Chill Snow Cloud Speed Gust Dir Press
3:00 4625m 12°C 12_3 0cm 0% 3mph 4mph 1025mB
6:00 4604m 12°C 12_4 0cm 0% 4mph 4mph 1025mB
9:00 4637m 17°C 17_2 0cm 0% 2mph 4mph 1024mB
12:00 4667m 27°C 27_7 0cm 0% 7mph 5mph 1024mB
15:00 4628m 26°C 26_5 0cm 29% 5mph 4mph 1023mB
18:00 4580m 26°C 26_10 0cm 65% 10mph 15mph 1024mB
21:00 4585m 14°C 14_8 0cm 100% 8mph 7mph 1026mB
0:00 4583m 14°C 14_7 0cm 93% 7mph 7mph 1025mB
3:00 4599m 14°C 14_6 0cm 8% 6mph 7mph 1024mB
6:00 4578m 14°C 14_6 0cm 4% 6mph 6mph 1023mB
9:00 4557m 19°C 19_2 0cm 0% 2mph 3mph 1022mB
12:00 4637m 30°C 30_6 0cm 0% 6mph 6mph 1021mB
15:00 4663m 28°C 28_6 0cm 28% 6mph 5mph 1019mB
18:00 4656m 28°C 28_1 0cm 36% 1mph 2mph 1018mB
21:00 4582m 17°C 17_6 0cm 1% 6mph 6mph 1020mB
0:00 4682m 16°C 16_7 0cm 1% 7mph 7mph 1019mB
3:00 4703m 15°C 15_8 0cm 0% 8mph 7mph 1018mB
6:00 4682m 14°C 14_7 0cm 0% 7mph 8mph 1017mB
9:00 4694m 18°C 18_0 0cm 0% 0mph 4mph 1017mB
12:00 4639m 28°C 28_3 0cm 0% 3mph 6mph 1015mB
15:00 4649m 28°C 28_3 0cm 0% 3mph 6mph 1015mB
18:00 4806m 28°C 28_3 0cm 0% 3mph 4mph 1015mB
21:00 4806m 14°C 14_2 0cm 0% 2mph 2mph 1017mB
0:00 4835m 13°C 13_1 0cm 6% 1mph 2mph 1018mB
3:00 4891m 13°C 13_3 0cm 86% 3mph 4mph 1018mB
6:00 4859m 13°C 13_4 0cm 93% 4mph 5mph 1018mB
9:00 4861m 14°C 14_4 0cm 97% 4mph 4mph 1018mB
12:00 4843m 20°C 20_7 0cm 79% 7mph 4mph 1017mB
15:00 4816m 21°C 21_7 0cm 34% 7mph 6mph 1017mB
18:00 4890m 21°C 21_3 0cm 30% 3mph 4mph 1018mB
21:00 4862m 12°C 12_2 0cm 51% 2mph 2mph 1020mB
0:00 4829m 12°C 12_2 0cm 30% 2mph 3mph 1020mB
3:00 4777m 10°C 10_3 0cm 5% 3mph 4mph 1020mB
6:00 4742m 10°C 10_3 0cm 8% 3mph 4mph 1020mB
9:00 4736m 15°C 15_3 0cm 3% 3mph 4mph 1020mB
12:00 4714m 24°C 24_6 0cm 4% 6mph 5mph 1019mB
15:00 4637m 24°C 24_7 0cm 0% 7mph 5mph 1018mB
18:00 4563m 24°C 24_3 0cm 8% 3mph 3mph 1018mB
21:00 4524m 14°C 14_4 0cm 1% 4mph 4mph 1020mB
0:00 4565m 12°C 12_5 0cm 1% 5mph 6mph 1020mB
3:00 4554m 12°C 12_4 0cm 40% 4mph 5mph 1019mB
6:00 4512m 12°C 12_3 0cm 36% 3mph 4mph 1020mB
9:00 4476m 17°C 17_1 0cm 27% 1mph 4mph 1019mB
12:00 4420m 26°C 26_6 0cm 37% 6mph 5mph 1017mB
15:00 4481m 24°C 24_7 0cm 52% 7mph 9mph 1016mB
18:00 4392m 24°C 24_1 0cm 39% 1mph 3mph 1017mB
21:00 4235m 12°C 12_11 0cm 100% 11mph 12mph 1019mB
0:00 4365m 11°C 11_4 0cm 100% 4mph 4mph 1019mB
3:00 4301m 11°C 11_6 0cm 90% 6mph 7mph 1017mB
6:00 4298m 10°C 10_5 0cm 73% 5mph 6mph 1017mB
9:00 4302m 15°C 15_1 0cm 42% 1mph 4mph 1016mB
12:00 4323m 24°C 24_7 0cm 37% 7mph 6mph 1015mB
15:00 4358m 22°C 22_5 0cm 85% 5mph 7mph 1014mB
18:00 4061m 21°C 21_4 0cm 92% 4mph 5mph 1015mB
21:00 4111m 12°C 12_5 0cm 100% 5mph 6mph 1017mB
0:00 4232m 10°C 10_4 0cm 99% 4mph 5mph 1017mB
3:00 4054m 10°C 10_3 0cm 74% 3mph 4mph 1017mB
6:00 4055m 9°C 9_2 0cm 47% 2mph 2mph 1017mB
9:00 4150m 14°C 14_5 0cm 15% 5mph 4mph 1017mB
12:00 4037m 18°C 18_5 0cm 58% 5mph 5mph 1016mB
15:00 4108m 17°C 17_2 0cm 100% 2mph 4mph 1016mB
18:00 4203m 17°C 17_2 0cm 95% 2mph 3mph 1016mB
21:00 4140m 11°C 11_3 0cm 58% 3mph 4mph 1018mB
0:00 4155m 10°C 10_3 0cm 59% 3mph 4mph 1018mB
3:00 4047m 9°C 9_1 0cm 61% 1mph 2mph 1017mB
6:00 4119m 9°C 9_4 0cm 33% 4mph 5mph 1018mB
9:00 4214m 13°C 13_3 0cm 0% 3mph 3mph 1017mB
12:00 4227m 20°C 20_5 0cm 10% 5mph 6mph 1017mB
15:00 4260m 19°C 19_4 0cm 54% 4mph 5mph 1016mB
18:00 4315m 19°C 19_2 0cm 65% 2mph 3mph 1016mB
21:00 4320m 11°C 11_6 0cm 11% 6mph 7mph 1018mB
0:00 4317m 10°C 10_6 0cm 6% 6mph 7mph 1018mB
3:00 4235m 10°C 10_7 0cm 0% 7mph 7mph 1018mB
6:00 4186m 10°C 10_6 0cm 0% 6mph 8mph 1018mB
9:00 4247m 14°C 14_2 0cm 0% 2mph 7mph 1018mB
12:00 4174m 24°C 24_2 0cm 7% 2mph 9mph 1017mB
15:00 4197m 23°C 23_1 0cm 57% 1mph 8mph 1016mB
18:00 4183m 23°C 23_3 0cm 65% 3mph 4mph 1016mB
21:00 4349m 13°C 13_8 0cm 100% 8mph 8mph 1018mB
0:00 4127m 11°C 11_9 0cm 97% 9mph 10mph 1018mB
Afternoon 0.0208333mm 0.0625 4352m 22°C 22_8 0cm 0% 8mph 13mph 1016mB
Morning 0mm 0 4889m 9°C 9_3 0cm 12% 3mph 4mph 1019mB
Afternoon 0.0208333mm 0.0625 4753m 15°C 15_5 0cm 62% 5mph 4mph 1020mB
Morning 0mm 0 4639m 10°C 10_4 0cm 72% 4mph 4mph 1020mB
Afternoon 0.0625mm 0.1875 4536m 25°C 25_5 0cm 68% 5mph 6mph 1017mB
Morning 0mm 0 4457m 12°C 12_5 0cm 10% 5mph 6mph 1018mB
Afternoon 0.0625mm 0.1875 4304m 25°C 25_4 0cm 0% 4mph 11mph 1016mB
Morning 0.145833mm 0.4375 4332m 11°C 11_7 0cm 16% 7mph 7mph 1018mB
Afternoon 0.333333mm 0.9375 4243m 25°C 25_5 0cm 10% 5mph 7mph 1016mB
Morning 0.125mm 0.375 4295m 12°C 12_7 0cm 55% 7mph 7mph 1015mB
Afternoon 0.6875mm 2.0625 4134m 22°C 22_5 0cm 17% 5mph 5mph 1012mB
Morning 0.0833333mm 0.25 3971m 10°C 10_7 0cm 62% 7mph 9mph 1011mB

16 day outlook at a glance

Forecast issued: 6/26/2019 8:52:17 AM

Chat

Your comments and questions. In a resort? Let us know what it's like!


Characters left 250

For terms and conditions see Readers Comments on the Cookie and privacy policy page.